| time (UTC) | temp F | wind direction | speed MPH | gust MPH | rain 1hr in | rain 24hr in | rain mn in | humidity % | barometer mb |
| 20260831082509 | 66 | 267 | 2.0 | 3.0 | 0.00 | 0.01 | 0.00 | 60 | 1019.4 |
| 20260831082009 | 66 | 267 | 0.0 | 4.0 | 0.00 | 0.01 | 0.00 | 60 | 1019.3 |
| 20260831081508 | 65 | 267 | 1.0 | 4.0 | 0.00 | 0.01 | 0.00 | 60 | 1019.3 |
| 20260831081010 | 65 | 268 | 1.0 | 3.0 | 0.00 | 0.01 | 0.00 | 59 | 1019.4 |
| 20260831080507 | 64 | 268 | 0.0 | 2.0 | 0.00 | 0.01 | 0.00 | 58 | 1019.4 |
| 20260831080012 | 64 | 268 | 0.0 | 2.0 | 0.00 | 0.01 | 0.00 | 57 | 1019.5 |
| 20260831075508 | 65 | 268 | 0.0 | 3.0 | 0.00 | 0.01 | 0.00 | 57 | 1019.6 |
| 20260831075007 | 65 | 268 | 1.0 | 3.0 | 0.00 | 0.01 | 0.00 | 57 | 1019.6 |
| 20260831074517 | 65 | 268 | 0.0 | 1.0 | 0.00 | 0.01 | 0.00 | 57 | 1019.7 |
| 20260831074015 | 65 | 268 | 0.0 | 3.0 | 0.00 | 0.01 | 0.00 | 56 | 1019.8 |
| 20260831073512 | 66 | 268 | 0.0 | 3.0 | 0.00 | 0.01 | 0.00 | 54 | 1019.9 |
| 20260831073011 | 66 | 268 | 0.0 | 3.0 | 0.00 | 0.01 | 0.00 | 54 | 1019.9 |
| 20260831072511 | 66 | 268 | 0.0 | 4.0 | 0.00 | 0.01 | 0.00 | 53 | 1019.9 |
| 20260831072014 | 66 | 268 | 2.0 | 4.0 | 0.00 | 0.01 | 0.00 | 53 | 1019.9 |
| 20260831071525 | 66 | 269 | 1.0 | 3.0 | 0.00 | 0.01 | 0.00 | 52 | 1020.0 |
| 20260831071015 | 66 | 269 | 2.0 | 3.0 | 0.00 | 0.01 | 0.00 | 52 | 1020.1 |
| 20260831070515 | 65 | 269 | 1.0 | 3.0 | 0.00 | 0.01 | 0.00 | 53 | 1020.1 |
| 20260831070025 | 65 | 269 | 0.0 | 1.0 | 0.00 | 0.01 | 0.00 | 54 | 1020.0 |
| 20260831065518 | 65 | 269 | 0.0 | 2.0 | 0.00 | 0.01 | 0.00 | 56 | 1020.1 |
| 20260831065017 | 65 | 269 | 0.0 | 3.0 | 0.00 | 0.01 | 0.00 | 55 | 1020.2 |
| 20260831064515 | 65 | 269 | 1.0 | 3.0 | 0.00 | 0.01 | 0.00 | 55 | 1020.0 |
| 20260831064015 | 66 | 269 | 1.0 | 3.0 | 0.00 | 0.01 | 0.00 | 54 | 1020.0 |
| 20260831063512 | 67 | 269 | 1.0 | 3.0 | 0.00 | 0.01 | 0.00 | 54 | 1020.0 |
| 20260831063015 | 68 | 269 | 2.0 | 3.0 | 0.00 | 0.01 | 0.00 | 49 | 1020.2 |
| 20260831062514 | 69 | 269 | 0.0 | 2.0 | 0.00 | 0.01 | 0.00 | 46 | 1020.3 |
| 20260831062014 | 69 | 269 | 0.0 | 3.0 | 0.00 | 0.01 | 0.00 | 45 | 1020.5 |
| 20260831061514 | 70 | 269 | 0.0 | 3.0 | 0.00 | 0.01 | 0.00 | 46 | 1020.5 |
| 20260831061013 | 70 | 269 | 1.0 | 4.0 | 0.00 | 0.01 | 0.00 | 46 | 1020.5 |
| 20260831060511 | 71 | 269 | 0.0 | 7.0 | 0.00 | 0.01 | 0.00 | 44 | 1020.6 |
| 20260831060011 | 71 | 267 | 2.0 | 8.0 | 0.00 | 0.01 | 0.00 | 42 | 1020.4 |
| 20260831055510 | 71 | 264 | 4.0 | 9.0 | 0.00 | 0.01 | 0.01 | 42 | 1020.5 |
| 20260831055010 | 71 | 253 | 5.0 | 9.0 | 0.00 | 0.01 | 0.01 | 42 | 1020.5 |
| 20260831054515 | 72 | 260 | 5.0 | 11.0 | 0.00 | 0.01 | 0.01 | 42 | 1020.4 |
| 20260831054018 | 72 | 257 | 6.0 | 11.0 | 0.00 | 0.01 | 0.01 | 43 | 1020.4 |
| 20260831053517 | 73 | 264 | 6.0 | 15.0 | 0.00 | 0.01 | 0.01 | 42 | 1020.5 |
| 20260831053014 | 73 | 281 | 8.0 | 18.0 | 0.00 | 0.01 | 0.01 | 41 | 1020.6 |
| 20260831052514 | 73 | 256 | 10.0 | 18.0 | 0.00 | 0.01 | 0.01 | 41 | 1020.7 |
| 20260831052014 | 73 | 243 | 11.0 | 18.0 | 0.00 | 0.01 | 0.01 | 42 | 1020.8 |
| 20260831051522 | 72 | 250 | 7.0 | 16.0 | 0.00 | 0.01 | 0.01 | 45 | 1020.8 |
| 20260831051017 | 71 | 252 | 7.0 | 13.0 | 0.00 | 0.01 | 0.01 | 52 | 1020.9 |
| 20260831050517 | 70 | 248 | 7.0 | 13.0 | 0.00 | 0.01 | 0.01 | 58 | 1021.0 |
| 20260831050019 | 69 | 247 | 7.0 | 12.0 | 0.00 | 0.01 | 0.01 | 62 | 1021.0 |
| 20260831045517 | 69 | 250 | 7.0 | 12.0 | 0.00 | 0.01 | 0.01 | 65 | 1021.0 |
| 20260831045020 | 68 | 263 | 5.0 | 8.0 | 0.00 | 0.01 | 0.01 | 65 | 1021.0 |
| 20260831044519 | 68 | 251 | 3.0 | 5.0 | 0.00 | 0.01 | 0.01 | 65 | 1020.9 |
| 20260831044017 | 68 | 226 | 3.0 | 5.0 | 0.00 | 0.01 | 0.01 | 66 | 1020.8 |
| 20260831043519 | 68 | 212 | 0.0 | 4.0 | 0.00 | 0.01 | 0.01 | 66 | 1020.8 |
| 20260831043021 | 68 | 212 | 0.0 | 4.0 | 0.00 | 0.01 | 0.01 | 65 | 1020.7 |
| 20260831042519 | 68 | 207 | 0.0 | 5.0 | 0.00 | 0.01 | 0.01 | 65 | 1020.5 |
| 20260831042019 | 68 | 207 | 0.0 | 6.0 | 0.00 | 0.01 | 0.01 | 65 | 1020.4 |
| 20260831041520 | 68 | 207 | 2.0 | 7.0 | 0.00 | 0.01 | 0.01 | 65 | 1020.4 |
| 20260831041020 | 68 | 211 | 3.0 | 6.0 | 0.00 | 0.01 | 0.01 | 65 | 1020.4 |
| 20260831040519 | 68 | 218 | 2.0 | 5.0 | 0.00 | 0.01 | 0.01 | 65 | 1020.3 |
| 20260831040026 | 68 | 219 | 3.0 | 5.0 | 0.00 | 0.01 | 0.01 | 65 | 1020.2 |
| 20260831035523 | 68 | 222 | 2.0 | 5.0 | 0.00 | 0.01 | 0.01 | 65 | 1020.2 |
| 20260831035023 | 68 | 224 | 2.0 | 4.0 | 0.00 | 0.01 | 0.01 | 65 | 1020.3 |
| 20260831034517 | 67 | 226 | 2.0 | 4.0 | 0.00 | 0.01 | 0.01 | 66 | 1020.3 |
| 20260831034018 | 67 | 227 | 1.0 | 4.0 | 0.00 | 0.01 | 0.01 | 66 | 1020.2 |
| 20260831033518 | 67 | 227 | 2.0 | 4.0 | 0.00 | 0.01 | 0.01 | 65 | 1020.1 |
| 20260831033020 | 67 | 227 | 0.0 | 2.0 | 0.00 | 0.01 | 0.01 | 65 | 1020.1 |
| 20260831032520 | 67 | 227 | 0.0 | 2.0 | 0.00 | 0.01 | 0.01 | 65 | 1020.0 |
| 20260831032018 | 67 | 227 | 0.0 | 4.0 | 0.00 | 0.01 | 0.01 | 64 | 1020.0 |
| 20260831031525 | 67 | 227 | 1.0 | 5.0 | 0.00 | 0.01 | 0.01 | 63 | 1020.0 |
| 20260831031017 | 67 | 227 | 2.0 | 6.0 | 0.00 | 0.01 | 0.01 | 63 | 1019.9 |
| 20260831030517 | 67 | 226 | 3.0 | 6.0 | 0.00 | 0.01 | 0.01 | 64 | 1019.9 |
| 20260831030018 | 67 | 231 | 3.0 | 6.0 | 0.00 | 0.01 | 0.01 | 62 | 1020.0 |
| 20260831025518 | 67 | 229 | 3.0 | 7.0 | 0.00 | 0.01 | 0.01 | 62 | 1019.9 |
| 20260831025019 | 67 | 224 | 4.0 | 7.0 | 0.00 | 0.01 | 0.01 | 62 | 1019.8 |
| 20260831024521 | 68 | 215 | 4.0 | 8.0 | 0.00 | 0.01 | 0.01 | 62 | 1019.7 |
| 20260831024017 | 68 | 212 | 5.0 | 8.0 | 0.00 | 0.01 | 0.01 | 62 | 1019.7 |
| 20260831023517 | 68 | 221 | 4.0 | 8.0 | 0.00 | 0.01 | 0.01 | 61 | 1019.6 |
| 20260831023022 | 68 | 212 | 5.0 | 7.0 | 0.00 | 0.01 | 0.01 | 62 | 1019.4 |
| 20260831022522 | 68 | 199 | 4.0 | 8.0 | 0.00 | 0.01 | 0.01 | 62 | 1019.4 |
| 20260831022021 | 68 | 195 | 4.0 | 8.0 | 0.00 | 0.01 | 0.01 | 62 | 1019.2 |
| 20260831021520 | 67 | 210 | 3.0 | 6.0 | 0.00 | 0.01 | 0.01 | 63 | 1019.3 |
| 20260831021020 | 68 | 209 | 3.0 | 7.0 | 0.00 | 0.01 | 0.01 | 63 | 1019.3 |
| 20260831020520 | 68 | 205 | 4.0 | 7.0 | 0.00 | 0.01 | 0.01 | 63 | 1019.3 |
| 20260831020004 | 68 | 205 | 3.0 | 6.0 | 0.00 | 0.01 | 0.01 | 63 | 1019.2 |
| 20260831015503 | 68 | 216 | 3.0 | 6.0 | 0.00 | 0.01 | 0.01 | 62 | 1019.3 |
| 20260831015006 | 68 | 241 | 2.0 | 5.0 | 0.00 | 0.01 | 0.01 | 62 | 1019.2 |
| 20260831014506 | 68 | 243 | 3.0 | 5.0 | 0.00 | 0.01 | 0.01 | 61 | 1019.2 |
| 20260831014004 | 69 | 165 | 2.0 | 4.0 | 0.00 | 0.01 | 0.01 | 61 | 1019.2 |
| 20260831013507 | 69 | 164 | 2.0 | 4.0 | 0.00 | 0.01 | 0.01 | 61 | 1019.2 |
| 20260831013003 | 70 | 163 | 1.0 | 5.0 | 0.00 | 0.01 | 0.01 | 60 | 1019.1 |
| 20260831012502 | 70 | 162 | 2.0 | 5.0 | 0.00 | 0.01 | 0.01 | 60 | 1019.1 |
| 20260831012002 | 71 | 162 | 2.0 | 5.0 | 0.00 | 0.01 | 0.01 | 59 | 1019.2 |
| 20260831011509 | 71 | 160 | 1.0 | 3.0 | 0.00 | 0.01 | 0.01 | 57 | 1019.2 |
| 20260831011005 | 71 | 160 | 0.0 | 3.0 | 0.00 | 0.01 | 0.01 | 56 | 1019.1 |
| 20260831010505 | 71 | 160 | 1.0 | 4.0 | 0.00 | 0.01 | 0.01 | 55 | 1019.1 |
| 20260831010035 | 72 | 160 | 2.0 | 4.0 | 0.00 | 0.01 | 0.01 | 54 | 1019.1 |
| 20260831005525 | 72 | 179 | 1.0 | 3.0 | 0.00 | 0.01 | 0.01 | 54 | 1019.1 |
| 20260831005025 | 72 | 179 | 0.0 | 4.0 | 0.00 | 0.01 | 0.01 | 53 | 1019.1 |
| 20260831004508 | 73 | 179 | 1.0 | 7.0 | 0.00 | 0.01 | 0.01 | 52 | 1019.2 |
| 20260831004008 | 73 | 178 | 4.0 | 7.0 | 0.00 | 0.01 | 0.01 | 52 | 1019.2 |
| 20260831003508 | 74 | 162 | 2.0 | 6.0 | 0.00 | 0.01 | 0.01 | 52 | 1019.2 |
| 20260831003009 | 74 | 163 | 2.0 | 7.0 | 0.00 | 0.01 | 0.01 | 51 | 1019.2 |
| 20260831002504 | 75 | 190 | 3.0 | 7.0 | 0.00 | 0.01 | 0.01 | 50 | 1019.1 |
| 20260831002007 | 76 | 174 | 3.0 | 7.0 | 0.00 | 0.01 | 0.01 | 47 | 1019.2 |
| 20260831001535 | 76 | 163 | 3.0 | 6.0 | 0.00 | 0.01 | 0.01 | 44 | 1019.2 |
| 20260831001025 | 76 | 144 | 3.0 | 6.0 | 0.00 | 0.01 | 0.01 | 45 | 1019.2 |
| 20260831000525 | 76 | 152 | 1.0 | 5.0 | 0.00 | 0.01 | 0.01 | 45 | 1019.2 |
| 20260831000008 | 76 | 167 | 2.0 | 4.0 | 0.00 | 0.01 | 0.01 | 46 | 1019.2 |
| 20260830235507 | 75 | 215 | 0.0 | 1.0 | 0.00 | 0.01 | 0.01 | 47 | 1019.3 |
| 20260830235007 | 75 | 215 | 0.0 | 2.0 | 0.00 | 0.01 | 0.01 | 45 | 1019.2 |
| 20260830234519 | 75 | 215 | 0.0 | 3.0 | 0.00 | 0.01 | 0.01 | 47 | 1019.2 |
| 20260830234008 | 75 | 215 | 1.0 | 3.0 | 0.00 | 0.01 | 0.01 | 46 | 1019.2 |
| 20260830233507 | 75 | 216 | 0.0 | 4.0 | 0.00 | 0.01 | 0.01 | 46 | 1019.1 |
| 20260830233011 | 75 | 217 | 1.0 | 4.0 | 0.00 | 0.01 | 0.01 | 46 | 1019.2 |
| 20260830232515 | 75 | 219 | 1.0 | 3.0 | 0.00 | 0.01 | 0.01 | 44 | 1019.2 |
| 20260830232015 | 75 | 220 | 2.0 | 4.0 | 0.00 | 0.01 | 0.01 | 45 | 1019.1 |
| 20260830231510 | 75 | 221 | 2.0 | 4.0 | 0.00 | 0.01 | 0.01 | 44 | 1019.0 |
| 20260830231012 | 75 | 226 | 1.0 | 4.0 | 0.00 | 0.01 | 0.01 | 45 | 1019.1 |
| 20260830230513 | 75 | 226 | 2.0 | 4.0 | 0.00 | 0.01 | 0.01 | 44 | 1019.2 |
| 20260830230023 | 75 | 250 | 1.0 | 2.0 | 0.00 | 0.01 | 0.01 | 46 | 1019.3 |
| 20260830225508 | 74 | 250 | 0.0 | 2.0 | 0.00 | 0.01 | 0.01 | 44 | 1019.2 |
| 20260830225010 | 74 | 250 | 0.0 | 4.0 | 0.00 | 0.01 | 0.01 | 48 | 1019.3 |
| 20260830224516 | 73 | 250 | 0.0 | 5.0 | 0.00 | 0.01 | 0.01 | 49 | 1019.3 |
| 20260830224010 | 72 | 250 | 3.0 | 7.0 | 0.00 | 0.01 | 0.01 | 50 | 1019.4 |
| 20260830223510 | 71 | 250 | 3.0 | 7.0 | 0.00 | 0.01 | 0.01 | 53 | 1019.5 |
| 20260830223018 | 70 | 276 | 2.0 | 6.0 | 0.00 | 0.01 | 0.01 | 56 | 1019.8 |
| 20260830222511 | 69 | 276 | 2.0 | 6.0 | 0.00 | 0.01 | 0.01 | 60 | 1019.8 |
| 20260830222013 | 69 | 292 | 2.0 | 6.0 | 0.00 | 0.01 | 0.01 | 60 | 1019.8 |
| 20260830221510 | 69 | 292 | 4.0 | 7.0 | 0.00 | 0.01 | 0.01 | 60 | 1019.7 |
| 20260830221010 | 69 | 292 | 4.0 | 9.0 | 0.00 | 0.01 | 0.01 | 60 | 1019.9 |
| 20260830220510 | 69 | 295 | 4.0 | 10.0 | 0.00 | 0.01 | 0.01 | 62 | 1019.9 |
| 20260830220025 | 69 | 304 | 4.0 | 12.0 | 0.00 | 0.01 | 0.01 | 62 | 1020.1 |
| 20260830215515 | 69 | 284 | 7.0 | 12.0 | 0.00 | 0.01 | 0.01 | 59 | 1020.2 |
| 20260830215012 | 68 | 285 | 8.0 | 12.0 | 0.00 | 0.01 | 0.01 | 60 | 1020.2 |
| 20260830214512 | 69 | 293 | 6.0 | 14.0 | 0.00 | 0.01 | 0.01 | 61 | 1020.2 |
| 20260830214011 | 68 | 289 | 9.0 | 15.0 | 0.00 | 0.01 | 0.01 | 59 | 1020.3 |
| 20260830213512 | 68 | 300 | 9.0 | 15.0 | 0.01 | 0.01 | 0.01 | 61 | 1020.4 |
| 20260830213016 | 67 | 296 | 11.0 | 17.0 | 0.01 | 0.01 | 0.01 | 63 | 1020.4 |
| 20260830212514 | 67 | 290 | 10.0 | 17.0 | 0.01 | 0.01 | 0.01 | 65 | 1020.4 |
| 20260830212015 | 67 | 266 | 9.0 | 20.0 | 0.01 | 0.01 | 0.01 | 64 | 1020.5 |
| 20260830211514 | 69 | 268 | 10.0 | 23.0 | 0.01 | 0.01 | 0.01 | 59 | 1020.5 |
| 20260830211014 | 70 | 260 | 10.0 | 23.0 | 0.01 | 0.01 | 0.01 | 58 | 1020.6 |
| 20260830210514 | 70 | 281 | 15.0 | 22.0 | 0.01 | 0.01 | 0.01 | 56 | 1020.4 |
| 20260830210013 | 70 | 343 | 14.0 | 22.0 | 0.01 | 0.01 | 0.01 | 58 | 1020.3 |
| 20260830205512 | 70 | 307 | 12.0 | 22.0 | 0.01 | 0.01 | 0.01 | 60 | 1020.2 |
| 20260830205017 | 69 | 294 | 11.0 | 26.0 | 0.01 | 0.01 | 0.01 | 67 | 1020.3 |
| 20260830204518 | 70 | 294 | 14.0 | 26.0 | 0.01 | 0.01 | 0.01 | 63 | 1020.3 |
| 20260830204018 | 74 | 303 | 14.0 | 25.0 | 0.01 | 0.01 | 0.01 | 57 | 1020.4 |
| 20260830203515 | 77 | 292 | 14.0 | 23.0 | 0.00 | 0.00 | 0.00 | 44 | 1019.9 |
| 20260830203016 | 78 | 321 | 5.0 | 11.0 | 0.00 | 0.00 | 0.00 | 41 | 1019.5 |
| 20260830202515 | 78 | 300 | 4.0 | 11.0 | 0.00 | 0.00 | 0.00 | 41 | 1019.0 |
| 20260830202015 | 79 | 344 | 6.0 | 12.0 | 0.00 | 0.00 | 0.00 | 40 | 1018.7 |
| 20260830201549 | 79 | 359 | 5.0 | 14.0 | 0.00 | 0.00 | 0.00 | 40 | 1018.7 |
| 20260830201019 | 78 | 359 | 6.0 | 14.0 | 0.00 | 0.00 | 0.00 | 41 | 1018.7 |
| 20260830200517 | 78 | 349 | 6.0 | 13.0 | 0.00 | 0.00 | 0.00 | 42 | 1018.7 |
| 20260830200017 | 77 | 288 | 7.0 | 13.0 | 0.00 | 0.00 | 0.00 | 42 | 1018.8 |
| 20260830195517 | 78 | 292 | 6.0 | 13.0 | 0.00 | 0.00 | 0.00 | 39 | 1018.7 |
| 20260830195016 | 82 | 349 | 6.0 | 13.0 | 0.00 | 0.00 | 0.00 | 34 | 1018.6 |
| 20260830194518 | 84 | 83 | 2.0 | 5.0 | 0.00 | 0.00 | 0.00 | 31 | 1018.5 |
| 20260830194012 | 84 | 86 | 2.0 | 5.0 | 0.00 | 0.00 | 0.00 | 31 | 1018.1 |
| 20260830193513 | 84 | 98 | 2.0 | 5.0 | 0.00 | 0.00 | 0.00 | 31 | 1017.8 |
| 20260830193017 | 84 | 161 | 1.0 | 5.0 | 0.00 | 0.00 | 0.00 | 30 | 1017.7 |
| 20260830192517 | 84 | 162 | 2.0 | 8.0 | 0.00 | 0.00 | 0.00 | 30 | 1017.6 |
| 20260830192016 | 84 | 160 | 2.0 | 8.0 | 0.00 | 0.00 | 0.00 | 31 | 1017.5 |
| 20260830191520 | 84 | 123 | 2.0 | 6.0 | 0.00 | 0.00 | 0.00 | 30 | 1017.3 |
| 20260830191022 | 84 | 136 | 2.0 | 4.0 | 0.00 | 0.00 | 0.00 | 32 | 1017.4 |
| 20260830190516 | 84 | 136 | 2.0 | 6.0 | 0.00 | 0.00 | 0.00 | 30 | 1017.5 |
| 20260830190020 | 84 | 158 | 3.0 | 7.0 | 0.00 | 0.00 | 0.00 | 29 | 1017.7 |
| 20260830185515 | 84 | 119 | 2.0 | 7.0 | 0.00 | 0.00 | 0.00 | 30 | 1017.7 |
| 20260830185014 | 83 | 148 | 1.0 | 5.0 | 0.00 | 0.00 | 0.00 | 29 | 1017.7 |
| 20260830184519 | 83 | 148 | 2.0 | 7.0 | 0.00 | 0.00 | 0.00 | 29 | 1017.8 |
| 20260830184019 | 84 | 146 | 2.0 | 7.0 | 0.00 | 0.00 | 0.00 | 29 | 1017.9 |
| 20260830183525 | 84 | 241 | 1.0 | 4.0 | 0.00 | 0.00 | 0.00 | 30 | 1017.9 |
| 20260830183020 | 84 | 270 | 1.0 | 4.0 | 0.00 | 0.00 | 0.00 | 30 | 1017.9 |
| 20260830182519 | 84 | 271 | 1.0 | 3.0 | 0.00 | 0.00 | 0.00 | 29 | 1018.0 |
| 20260830182019 | 84 | 269 | 1.0 | 4.0 | 0.00 | 0.00 | 0.00 | 30 | 1017.9 |
| 20260830181524 | 85 | 268 | 1.0 | 4.0 | 0.00 | 0.00 | 0.00 | 29 | 1018.0 |
| 20260830181023 | 85 | 264 | 1.0 | 6.0 | 0.00 | 0.00 | 0.00 | 31 | 1018.1 |
| 20260830180520 | 84 | 258 | 1.0 | 6.0 | 0.00 | 0.00 | 0.00 | 31 | 1018.1 |
| 20260830180021 | 83 | 240 | 2.0 | 9.0 | 0.00 | 0.00 | 0.00 | 30 | 1018.2 |
| 20260830175521 | 83 | 237 | 3.0 | 9.0 | 0.00 | 0.00 | 0.00 | 29 | 1018.3 |
| 20260830175024 | 83 | 261 | 3.0 | 5.0 | 0.00 | 0.00 | 0.00 | 29 | 1018.4 |
| 20260830174503 | 83 | 260 | 3.0 | 5.0 | 0.00 | 0.00 | 0.00 | 31 | 1018.3 |
| 20260830174001 | 83 | 238 | 1.0 | 7.0 | 0.00 | 0.00 | 0.00 | 30 | 1018.5 |
| 20260830173602 | 84 | 243 | 2.0 | 9.0 | 0.00 | 0.00 | 0.00 | 30 | 1018.5 |
| 20260830173031 | 83 | 238 | 4.0 | 9.0 | 0.00 | 0.00 | 0.00 | 29 | 1018.6 |
| 20260830172524 | 83 | 283 | 5.0 | 12.0 | 0.00 | 0.00 | 0.00 | 31 | 1018.7 |
| 20260830172024 | 82 | 255 | 5.0 | 12.0 | 0.00 | 0.00 | 0.00 | 30 | 1018.7 |
| 20260830171523 | 82 | 297 | 6.0 | 12.0 | 0.00 | 0.00 | 0.00 | 31 | 1018.8 |
| 20260830171024 | 83 | 271 | 6.0 | 13.0 | 0.00 | 0.00 | 0.00 | 30 | 1018.8 |
| 20260830170521 | 82 | 264 | 8.0 | 14.0 | 0.00 | 0.00 | 0.00 | 32 | 1018.8 |
| 20260830170003 | 80 | 301 | 8.0 | 14.0 | 0.00 | 0.00 | 0.00 | 32 | 1018.8 |
| 20260830165506 | 80 | 286 | 6.0 | 15.0 | 0.00 | 0.00 | 0.00 | 34 | 1019.0 |
| 20260830165003 | 80 | 305 | 9.0 | 15.0 | 0.00 | 0.00 | 0.00 | 33 | 1019.0 |
| 20260830164505 | 80 | 297 | 7.0 | 15.0 | 0.00 | 0.00 | 0.00 | 34 | 1019.0 |
| 20260830164007 | 80 | 285 | 9.0 | 17.0 | 0.00 | 0.00 | 0.00 | 34 | 1019.0 |
| 20260830163505 | 80 | 301 | 10.0 | 17.0 | 0.00 | 0.00 | 0.00 | 32 | 1019.0 |
| 20260830163033 | 80 | 282 | 6.0 | 18.0 | 0.00 | 0.00 | 0.00 | 34 | 1018.9 |
| 20260830162530 | 79 | 286 | 11.0 | 18.0 | 0.00 | 0.00 | 0.00 | 33 | 1018.9 |
| 20260830162025 | 79 | 279 | 8.0 | 17.0 | 0.00 | 0.00 | 0.00 | 34 | 1019.1 |
| 20260830161510 | 78 | 283 | 7.0 | 16.0 | 0.00 | 0.00 | 0.00 | 35 | 1019.2 |
| 20260830161009 | 78 | 260 | 7.0 | 12.0 | 0.00 | 0.00 | 0.00 | 37 | 1019.4 |
| 20260830160508 | 77 | 261 | 3.0 | 7.0 | 0.00 | 0.00 | 0.00 | 39 | 1019.3 |
| 20260830160009 | 76 | 269 | 2.0 | 7.0 | 0.00 | 0.00 | 0.00 | 42 | 1019.2 |
| 20260830155508 | 76 | 286 | 3.0 | 7.0 | 0.00 | 0.00 | 0.00 | 43 | 1019.4 |
| 20260830155007 | 75 | 286 | 3.0 | 5.0 | 0.00 | 0.00 | 0.00 | 47 | 1019.4 |
| 20260830154511 | 74 | 286 | 3.0 | 5.0 | 0.00 | 0.00 | 0.00 | 47 | 1019.4 |
| 20260830154011 | 74 | 285 | 3.0 | 6.0 | 0.00 | 0.00 | 0.00 | 47 | 1019.4 |
| 20260830153509 | 73 | 285 | 4.0 | 6.0 | 0.00 | 0.00 | 0.00 | 47 | 1019.4 |
| 20260830153028 | 73 | 281 | 2.0 | 6.0 | 0.00 | 0.00 | 0.00 | 49 | 1019.5 |
| 20260830152514 | 73 | 240 | 2.0 | 6.0 | 0.00 | 0.00 | 0.00 | 50 | 1019.6 |
| 20260830152009 | 72 | 237 | 3.0 | 6.0 | 0.00 | 0.00 | 0.00 | 51 | 1019.6 |
| 20260830151516 | 71 | 200 | 2.0 | 5.0 | 0.00 | 0.00 | 0.00 | 51 | 1019.4 |
| 20260830151012 | 71 | 199 | 2.0 | 3.0 | 0.00 | 0.00 | 0.00 | 51 | 1019.3 |
| 20260830150508 | 71 | 199 | 1.0 | 3.0 | 0.00 | 0.00 | 0.00 | 51 | 1019.2 |
| 20260830150012 | 71 | 199 | 1.0 | 4.0 | 0.00 | 0.00 | 0.00 | 53 | 1019.1 |
| 20260830145511 | 70 | 199 | 2.0 | 4.0 | 0.00 | 0.00 | 0.00 | 52 | 1019.2 |
| 20260830145011 | 70 | 199 | 2.0 | 4.0 | 0.00 | 0.00 | 0.00 | 53 | 1019.0 |
| 20260830144513 | 70 | 200 | 2.0 | 5.0 | 0.00 | 0.00 | 0.00 | 53 | 1019.0 |
| 20260830144012 | 70 | 201 | 3.0 | 5.0 | 0.00 | 0.00 | 0.00 | 54 | 1019.0 |
| 20260830143509 | 69 | 201 | 3.0 | 6.0 | 0.00 | 0.00 | 0.00 | 54 | 1019.0 |
| 20260830143015 | 69 | 204 | 3.0 | 6.0 | 0.00 | 0.00 | 0.00 | 55 | 1019.0 |
| 20260830142515 | 69 | 207 | 3.0 | 7.0 | 0.00 | 0.00 | 0.00 | 56 | 1019.0 |
| 20260830142009 | 69 | 207 | 2.0 | 7.0 | 0.00 | 0.00 | 0.00 | 58 | 1019.0 |
| 20260830141512 | 68 | 193 | 4.0 | 7.0 | 0.00 | 0.00 | 0.00 | 58 | 1019.0 |
| 20260830141014 | 68 | 188 | 1.0 | 4.0 | 0.00 | 0.00 | 0.00 | 60 | 1019.0 |
| 20260830140511 | 68 | 188 | 0.0 | 3.0 | 0.00 | 0.00 | 0.00 | 61 | 1019.0 |
| 20260830140009 | 68 | 188 | 1.0 | 3.0 | 0.00 | 0.00 | 0.00 | 60 | 1019.0 |
| 20260830135511 | 68 | 188 | 0.0 | 2.0 | 0.00 | 0.00 | 0.00 | 60 | 1018.9 |
| 20260830135011 | 67 | 188 | 0.0 | 2.0 | 0.00 | 0.00 | 0.00 | 61 | 1018.8 |
| 20260830134515 | 66 | 188 | 0.0 | 2.0 | 0.00 | 0.00 | 0.00 | 63 | 1018.7 |
| 20260830134012 | 65 | 188 | 0.0 | 2.0 | 0.00 | 0.00 | 0.00 | 65 | 1018.8 |
| 20260830133517 | 65 | 188 | 0.0 | 2.0 | 0.00 | 0.00 | 0.00 | 66 | 1018.9 |
| 20260830133033 | 64 | 188 | 0.0 | 2.0 | 0.00 | 0.00 | 0.00 | 67 | 1018.9 |
| 20260830132512 | 63 | 188 | 0.0 | 2.0 | 0.00 | 0.00 | 0.00 | 68 | 1018.9 |
| 20260830132011 | 62 | 188 | 0.0 | 0.0 | 0.00 | 0.00 | 0.00 | 69 | 1018.9 |
| 20260830131512 | 62 | 188 | 0.0 | 1.0 | 0.00 | 0.00 | 0.00 | 69 | 1019.0 |
| 20260830131014 | 62 | 188 | 0.0 | 2.0 | 0.00 | 0.00 | 0.00 | 70 | 1018.9 |
| 20260830130511 | 62 | 213 | 0.0 | 2.0 | 0.00 | 0.00 | 0.00 | 71 | 1018.9 |
| 20260830130013 | 62 | 213 | 0.0 | 2.0 | 0.00 | 0.00 | 0.00 | 70 | 1018.9 |
| 20260830125514 | 62 | 213 | 0.0 | 2.0 | 0.00 | 0.00 | 0.00 | 70 | 1018.8 |
| 20260830125015 | 62 | 213 | 0.0 | 0.0 | 0.00 | 0.00 | 0.00 | 71 | 1018.7 |
| 20260830124515 | 62 | 213 | 0.0 | 0.0 | 0.00 | 0.00 | 0.00 | 70 | 1018.6 |
| 20260830124015 | 62 | 213 | 0.0 | 2.0 | 0.00 | 0.00 | 0.00 | 71 | 1018.7 |
| 20260830123513 | 62 | 213 | 0.0 | 2.0 | 0.00 | 0.00 | 0.00 | 71 | 1018.7 |
| 20260830123014 | 62 | 213 | 0.0 | 3.0 | 0.00 | 0.00 | 0.00 | 73 | 1018.5 |
| 20260830122514 | 62 | 213 | 1.0 | 3.0 | 0.00 | 0.00 | 0.00 | 72 | 1018.4 |
| 20260830122017 | 63 | 213 | 1.0 | 4.0 | 0.00 | 0.00 | 0.00 | 71 | 1018.4 |
| 20260830121516 | 63 | 213 | 1.0 | 4.0 | 0.00 | 0.00 | 0.00 | 72 | 1018.2 |
| 20260830121016 | 62 | 213 | 2.0 | 4.0 | 0.00 | 0.00 | 0.00 | 74 | 1018.2 |
| 20260830120516 | 62 | 213 | 0.0 | 2.0 | 0.00 | 0.00 | 0.00 | 71 | 1018.0 |
| 20260830120014 | 63 | 213 | 1.0 | 2.0 | 0.00 | 0.00 | 0.00 | 70 | 1018.1 |
| 20260830115516 | 63 | 213 | 0.0 | 2.0 | 0.00 | 0.00 | 0.00 | 70 | 1017.9 |
| 20260830115012 | 64 | 213 | 0.0 | 1.0 | 0.00 | 0.00 | 0.00 | 69 | 1017.9 |
| 20260830114519 | 64 | 213 | 0.0 | 2.0 | 0.00 | 0.00 | 0.00 | 69 | 1017.9 |
| 20260830114017 | 64 | 213 | 0.0 | 2.0 | 0.00 | 0.00 | 0.00 | 68 | 1018.0 |
| 20260830113516 | 65 | 213 | 0.0 | 2.0 | 0.00 | 0.00 | 0.00 | 68 | 1017.9 |
| 20260830113014 | 65 | 213 | 0.0 | 3.0 | 0.00 | 0.00 | 0.00 | 67 | 1017.9 |
| 20260830112514 | 65 | 213 | 1.0 | 3.0 | 0.00 | 0.00 | 0.00 | 66 | 1017.7 |
| 20260830112014 | 65 | 221 | 1.0 | 3.0 | 0.00 | 0.00 | 0.00 | 66 | 1017.7 |
| 20260830111513 | 65 | 238 | 1.0 | 3.0 | 0.00 | 0.00 | 0.00 | 66 | 1017.8 |
| 20260830111013 | 65 | 242 | 0.0 | 4.0 | 0.00 | 0.00 | 0.00 | 64 | 1017.9 |
| 20260830110513 | 65 | 243 | 2.0 | 4.0 | 0.00 | 0.00 | 0.00 | 63 | 1018.0 |
| 20260830110016 | 66 | 243 | 1.0 | 3.0 | 0.00 | 0.00 | 0.00 | 63 | 1017.9 |
| 20260830105520 | 66 | 243 | 0.0 | 2.0 | 0.00 | 0.00 | 0.00 | 62 | 1017.9 |
| 20260830105016 | 66 | 243 | 0.0 | 2.0 | 0.00 | 0.00 | 0.00 | 60 | 1017.9 |
| 20260830104516 | 66 | 243 | 0.0 | 2.0 | 0.00 | 0.00 | 0.00 | 57 | 1017.9 |
| 20260830104016 | 66 | 243 | 0.0 | 2.0 | 0.00 | 0.00 | 0.00 | 56 | 1017.9 |
| 20260830103516 | 66 | 243 | 0.0 | 0.0 | 0.00 | 0.00 | 0.00 | 55 | 1017.9 |
| 20260830103021 | 67 | 243 | 0.0 | 0.0 | 0.00 | 0.00 | 0.00 | 54 | 1017.8 |
| 20260830102521 | 67 | 243 | 0.0 | 0.0 | 0.00 | 0.00 | 0.00 | 54 | 1017.8 |
| 20260830102019 | 67 | 243 | 0.0 | 0.0 | 0.00 | 0.00 | 0.00 | 53 | 1017.7 |
| 20260830101518 | 67 | 243 | 0.0 | 1.0 | 0.00 | 0.00 | 0.00 | 54 | 1017.8 |
| 20260830101018 | 67 | 243 | 0.0 | 2.0 | 0.00 | 0.00 | 0.00 | 53 | 1017.9 |
| 20260830100518 | 67 | 243 | 0.0 | 2.0 | 0.00 | 0.00 | 0.00 | 53 | 1017.9 |
| 20260830100026 | 68 | 243 | 0.0 | 2.0 | 0.00 | 0.00 | 0.00 | 52 | 1017.9 |
| 20260830095522 | 67 | 243 | 0.0 | 3.0 | 0.00 | 0.00 | 0.00 | 52 | 1017.8 |
| 20260830095018 | 67 | 243 | 1.0 | 4.0 | 0.00 | 0.00 | 0.00 | 52 | 1017.9 |
| 20260830094550 | 67 | 243 | 2.0 | 4.0 | 0.00 | 0.00 | 0.00 | 53 | 1018.0 |
| 20260830094022 | 67 | 243 | 0.0 | 2.0 | 0.00 | 0.00 | 0.00 | 53 | 1017.9 |
| 20260830093526 | 67 | 243 | 0.0 | 3.0 | 0.00 | 0.00 | 0.00 | 53 | 1018.0 |
| 20260830093022 | 67 | 243 | 1.0 | 3.0 | 0.00 | 0.00 | 0.00 | 53 | 1017.9 |
| 20260830092523 | 67 | 243 | 1.0 | 3.0 | 0.00 | 0.00 | 0.00 | 52 | 1017.7 |
| 20260830092025 | 67 | 243 | 1.0 | 3.0 | 0.00 | 0.00 | 0.00 | 52 | 1017.5 |
| 20260830091525 | 67 | 243 | 1.0 | 3.0 | 0.00 | 0.00 | 0.00 | 52 | 1017.7 |
| 20260830091026 | 67 | 243 | 1.0 | 4.0 | 0.00 | 0.00 | 0.00 | 53 | 1017.7 |
| 20260830090523 | 67 | 243 | 2.0 | 4.0 | 0.00 | 0.00 | 0.00 | 54 | 1017.7 |
| 20260830090040 | 66 | 244 | 2.0 | 4.0 | 0.00 | 0.00 | 0.00 | 54 | 1017.8 |
| 20260830085526 | 66 | 244 | 2.0 | 6.0 | 0.00 | 0.00 | 0.00 | 56 | 1017.7 |
| 20260830085022 | 65 | 244 | 3.0 | 7.0 | 0.00 | 0.00 | 0.00 | 58 | 1017.8 |
| 20260830084523 | 64 | 247 | 3.0 | 7.0 | 0.00 | 0.00 | 0.00 | 61 | 1017.8 |
| 20260830084023 | 64 | 227 | 2.0 | 4.0 | 0.00 | 0.00 | 0.00 | 64 | 1018.0 |
| 20260830083522 | 64 | 226 | 1.0 | 2.0 | 0.00 | 0.00 | 0.00 | 65 | 1017.9 |
| 20260830083006 | 64 | 226 | 0.0 | 3.0 | 0.00 | 0.00 | 0.00 | 64 | 1017.9 |